Location: Brantley
(31.5822°N, 86.2569°W)
Time: 23:01:09
(UTC+00:00)

A-11 Canister half - Pass Details

Date: 24 February 2026
Orbit: 1525 x 1683 km, 47.3° (Epoch: 10 March)

Event Time Altitude Azimuth Distance (km) Brightness Sun altitude
Rises 03:25:08 0° 307° (NW) 4,674 12.2 -48.2°
Reaches altitude 10° 03:28:09 10° 306° (NW) 3,692 11.5 -48.8°
Enters shadow 03:32:53 35° 300° (WNW) 2,278 10.1 -49.7°
